Meteo pe oră la Abaturovo

Astăzi, 24 Iulie, Sâmbătă

Timp Temperatura Precipitaţii Vânt Presiune Umiditate
00:00 +14°C° 0 mm 2 m/s 745 mmHg 71%
01:00 +13°C° 0 mm 2 m/s 745 mmHg 72%
02:00 +13°C° 0 mm 2 m/s 745 mmHg 72%
03:00 +13°C° 0 mm 2 m/s 746 mmHg 74%
04:00 +13°C° 0 mm 2 m/s 746 mmHg 75%
05:00 +12°C° 0 mm 2 m/s 747 mmHg 76%
06:00 +14°C° 0 mm 2 m/s 747 mmHg 70%
07:00 +15°C° 0 mm 2 m/s 747 mmHg 64%
08:00 +16°C° 0 mm 2 m/s 748 mmHg 58%
09:00 +17°C° 0 mm 2 m/s 748 mmHg 53%
10:00 +18°C° 0 mm 2 m/s 748 mmHg 49%
11:00 +19°C° 0 mm 2 m/s 749 mmHg 44%
12:00 +20°C° 0 mm 2 m/s 749 mmHg 41%
13:00 +20°C° 0 mm 3 m/s 749 mmHg 39%
14:00 +21°C° 0 mm 3 m/s 749 mmHg 36%
15:00 +21°C° 0 mm 3 m/s 749 mmHg 37%
16:00 +20°C° 0 mm 2 m/s 750 mmHg 38%
17:00 +20°C° 0 mm 2 m/s 750 mmHg 39%
18:00 +19°C° 0 mm 2 m/s 750 mmHg 45%
19:00 +18°C° 0 mm 1 m/s 750 mmHg 50%
20:00 +15°C° 0 mm 1 m/s 750 mmHg 56%
21:00 +15°C° 0 mm 1 m/s 751 mmHg 57%
22:00 +14°C° 0 mm 1 m/s 751 mmHg 58%
23:00 +14°C° 0 mm 1 m/s 751 mmHg 59%

Mâine, 25 Iulie, Duminică

Timp Temperatura Precipitaţii Vânt Presiune Umiditate
00:00 +13°C° 0 mm 1 m/s 752 mmHg 61%
01:00 +13°C° 0 mm 1 m/s 752 mmHg 62%
02:00 +13°C° 0 mm 1 m/s 752 mmHg 63%
03:00 +13°C° 0 mm 1 m/s 752 mmHg 64%
04:00 +14°C° 0 mm 1 m/s 753 mmHg 65%
05:00 +14°C° 0 mm 1 m/s 753 mmHg 66%
06:00 +16°C° 0 mm 1 m/s 753 mmHg 61%
07:00 +18°C° 0 mm 1 m/s 753 mmHg 57%
08:00 +20°C° 0 mm 1 m/s 753 mmHg 52%
09:00 +22°C° 0 mm 1 m/s 753 mmHg 45%
10:00 +23°C° 0 mm 1 m/s 753 mmHg 39%
11:00 +25°C° 0 mm 1 m/s 753 mmHg 32%
12:00 +25°C° 0 mm 1 m/s 753 mmHg 32%
13:00 +25°C° 0 mm 1 m/s 753 mmHg 32%
14:00 +25°C° 0 mm 2 m/s 753 mmHg 32%
15:00 +25°C° 0 mm 2 m/s 753 mmHg 34%
16:00 +25°C° 0 mm 2 m/s 753 mmHg 36%
17:00 +25°C° 0 mm 2 m/s 753 mmHg 37%
18:00 +23°C° 0 mm 1 m/s 754 mmHg 44%
19:00 +21°C° 0 mm 1 m/s 754 mmHg 50%
20:00 +20°C° 0 mm 1 m/s 754 mmHg 56%
21:00 +19°C° 0 mm 1 m/s 754 mmHg 57%
22:00 +19°C° 0 mm 1 m/s 754 mmHg 58%
23:00 +19°C° 0 mm 1 m/s 755 mmHg 58%

Poimâine, 26 Iulie, Luni

Timp Temperatura Precipitaţii Vânt Presiune Umiditate
00:00 +18°C° 0 mm 1 m/s 755 mmHg 58%
01:00 +18°C° 0 mm 1 m/s 755 mmHg 58%
02:00 +18°C° 0 mm 1 m/s 755 mmHg 58%
03:00 +18°C° 0 mm 1 m/s 755 mmHg 60%
04:00 +18°C° 0 mm 1 m/s 755 mmHg 61%
05:00 +18°C° 0 mm 1 m/s 755 mmHg 63%
06:00 +20°C° 0 mm 1 m/s 755 mmHg 60%
07:00 +20°C° 0 mm 2 m/s 755 mmHg 57%
08:00 +21°C° 0 mm 2 m/s 756 mmHg 53%
09:00 +23°C° 0 mm 2 m/s 756 mmHg 49%
10:00 +25°C° 0 mm 2 m/s 756 mmHg 44%
11:00 +26°C° 0 mm 2 m/s 756 mmHg 39%
12:00 +27°C° 0 mm 2 m/s 755 mmHg 38%
13:00 +27°C° 0 mm 2 m/s 755 mmHg 38%
14:00 +27°C° 0 mm 2 m/s 755 mmHg 38%
15:00 +26°C° 0 mm 2 m/s 755 mmHg 41%
16:00 +26°C° 0 mm 2 m/s 755 mmHg 45%
17:00 +25°C° 0 mm 2 m/s 755 mmHg 48%
18:00 +24°C° 0 mm 1 m/s 755 mmHg 54%
19:00 +22°C° 0 mm 1 m/s 755 mmHg 59%
20:00 +20°C° 0 mm 1 m/s 755 mmHg 64%
21:00 +20°C° 0 mm 1 m/s 755 mmHg 65%
22:00 +19°C° 0 mm 1 m/s 755 mmHg 66%
23:00 +19°C° 0 mm 1 m/s 755 mmHg 66%

27 Iulie, Marţi

Timp Temperatura Precipitaţii Vânt Presiune Umiditate
00:00 +19°C° 0 mm 1 m/s 755 mmHg 68%
01:00 +18°C° 0 mm 1 m/s 755 mmHg 70%
02:00 +18°C° 0 mm 1 m/s 755 mmHg 72%
03:00 +18°C° 0 mm 1 m/s 755 mmHg 72%
04:00 +18°C° 0 mm 1 m/s 756 mmHg 72%
05:00 +19°C° 0 mm 1 m/s 756 mmHg 72%
06:00 +21°C° 0 mm 1 m/s 756 mmHg 64%
07:00 +23°C° 0 mm 1 m/s 756 mmHg 57%
08:00 +25°C° 0 mm 1 m/s 756 mmHg 49%
09:00 +26°C° 0 mm 1 m/s 755 mmHg 45%
10:00 +28°C° 0 mm 2 m/s 755 mmHg 41%
11:00 +29°C° 0 mm 2 m/s 755 mmHg 37%
12:00 +29°C° 0 mm 2 m/s 755 mmHg 37%
13:00 +29°C° 0 mm 2 m/s 755 mmHg 36%
14:00 +29°C° 0 mm 1 m/s 754 mmHg 36%
15:00 +29°C° 0 mm 2 m/s 754 mmHg 38%
16:00 +29°C° 0 mm 2 m/s 754 mmHg 39%
17:00 +29°C° 0 mm 2 m/s 754 mmHg 40%
18:00 +26°C° 0 mm 2 m/s 754 mmHg 47%
19:00 +24°C° 0 mm 2 m/s 753 mmHg 53%
20:00 +21°C° 0 mm 2 m/s 753 mmHg 60%
21:00 +21°C° 0 mm 1 m/s 753 mmHg 62%
22:00 +21°C° 0 mm 1 m/s 753 mmHg 65%
23:00 +20°C° 0 mm 1 m/s 753 mmHg 67%

28 Iulie, Miercuri

Timp Temperatura Precipitaţii Vânt Presiune Umiditate
00:00 +19°C° 0 mm 1 m/s 753 mmHg 70%
01:00 +19°C° 0 mm 1 m/s 753 mmHg 73%
02:00 +18°C° 0 mm 1 m/s 753 mmHg 75%
03:00 +17°C° 0 mm 2 m/s 753 mmHg 75%
04:00 +17°C° 0 mm 2 m/s 753 mmHg 75%
05:00 +18°C° 0 mm 2 m/s 752 mmHg 75%
06:00 +20°C° 0 mm 2 m/s 752 mmHg 66%
07:00 +23°C° 0 mm 2 m/s 752 mmHg 58%
08:00 +26°C° 0 mm 2 m/s 752 mmHg 49%
09:00 +27°C° 0 mm 3 m/s 751 mmHg 47%
10:00 +27°C° 0 mm 3 m/s 751 mmHg 44%
11:00 +28°C° 0 mm 3 m/s 751 mmHg 42%
12:00 +29°C° 0 mm 3 m/s 750 mmHg 38%
13:00 +30°C° 0 mm 4 m/s 749 mmHg 35%
14:00 +30°C° 0 mm 4 m/s 749 mmHg 32%
15:00 +30°C° 0 mm 4 m/s 748 mmHg 36%
16:00 +29°C° 0 mm 3 m/s 748 mmHg 39%
17:00 +28°C° 0 mm 2 m/s 748 mmHg 43%
18:00 +27°C° 0 mm 3 m/s 747 mmHg 48%
19:00 +25°C° 0 mm 3 m/s 747 mmHg 53%
20:00 +24°C° 0 mm 3 m/s 746 mmHg 59%
21:00 +22°C° 0 mm 3 m/s 746 mmHg 63%
22:00 +21°C° 0 mm 2 m/s 746 mmHg 67%
23:00 +20°C° 0 mm 2 m/s 745 mmHg 71%

29 Iulie, Joi

Timp Temperatura Precipitaţii Vânt Presiune Umiditate
00:00 +19°C° 0 mm 2 m/s 745 mmHg 72%
01:00 +19°C° 0 mm 2 m/s 744 mmHg 73%
02:00 +19°C° 0 mm 3 m/s 744 mmHg 75%
03:00 +18°C° 0.3 mm 3 m/s 743 mmHg 80%
04:00 +18°C° 0.3 mm 3 m/s 743 mmHg 86%
05:00 +18°C° 0.3 mm 3 m/s 742 mmHg 92%
06:00 +18°C° 0.4 mm 3 m/s 742 mmHg 93%
07:00 +18°C° 0.4 mm 3 m/s 741 mmHg 94%
08:00 +19°C° 0.4 mm 3 m/s 741 mmHg 95%
09:00 +19°C° 0.1 mm 3 m/s 741 mmHg 93%
10:00 +20°C° 0.1 mm 3 m/s 741 mmHg 92%
11:00 +20°C° 0.1 mm 3 m/s 740 mmHg 91%
12:00 +20°C° 0.9 mm 4 m/s 741 mmHg 92%
13:00 +20°C° 0.9 mm 4 m/s 741 mmHg 93%
14:00 +20°C° 0.9 mm 4 m/s 741 mmHg 95%
15:00 +19°C° 0.3 mm 4 m/s 741 mmHg 93%
16:00 +19°C° 0.3 mm 4 m/s 741 mmHg 92%
17:00 +19°C° 0.3 mm 4 m/s 741 mmHg 90%
18:00 +18°C° 0 mm 3 m/s 741 mmHg 92%
19:00 +18°C° 0 mm 3 m/s 742 mmHg 94%
20:00 +17°C° 0 mm 2 m/s 742 mmHg 95%
21:00 +17°C° 0 mm 3 m/s 742 mmHg 95%
22:00 +17°C° 0 mm 3 m/s 742 mmHg 94%
23:00 +17°C° 0 mm 3 m/s 742 mmHg 94%
Arată mai mult

Formular de consimțământ

Meteoprog și furnizorii noștri de servicii pot stoca și accesa date personale, precum cookies, identificatori de dispozitiv sau alte tehnologii similare pe dispozitivul dumneavoastră și procesa astfel de date pentru a personaliza conținutul și reclamele, dar și pentru a oferi caracteristici de social media și pentru a analiza traficul.

  • Stocarea și/sau accesarea informațiilor pe dispozitivul dumneavoastră

    Cookies, identificatori de dispozitiv sau alte informații pot fi stocate sau accesate pe dispozitiv în scopurile indicate mai sus.

  • Reclame și conținut personalizat, evaluarea reclamelor și a conținutului, informații despre audiențe și dezvoltarea produselor

    Reclamele și conținutul pot fi personalizate pe baza unui profil. Pot fi adăugate date suplimentare pentru a personaliza mai bine reclamele și conținutul. Performanța reclamelor și conținutului poate fi măsurată. Pot fi obținute informații despre utilizatorii care au văzut reclamele și conținutul. Aceste date pot fi utilizate pentru a dezvolta sau îmbunătăți experiența utilizatorilor, sistemele și software-ul.

Dând clic pe ‘Sunt de acord’, permiteți utilizarea cookie-urilor menționate, a identificatorilor de dispozitiv, balizelor web sau altor tehnologii similare. Setările pot fi modificate din browser-ul dispozitivului dumneavoastră.

În anumite scopuri, interesele legitime pot prima asupra consimțământului. Puteți citi mai multe informații în acest sens în Politica privind Confidențialitatea Datelor și Cookie.